Retour au catalogue

NOAA 16 DEB

ActifSSO
NORAD 41152·DEBRIS·🇺🇸 United States

Lancé Sep 21, 2000 depuis Vandenberg Space Force Base

Loading…

Prochains Passages (prochaines 24 heures)

TLE

FraisSource: Space-Track

Époque: Sep 14, 2026, 14:07 UTC

1 41152U 00055CK  26257.58829265  .00003333  00000-0  11112-2 0  9990
2 41152  98.8441  24.8446 0009165 266.3961  93.6177 14.38231906559516

Suivez NOAA 16 DEB en temps réel avec AllMySat

Download on the App Store